TimeEDT,TemperatureF,Dew PointF,Humidity,Sea Level PressureIn,VisibilityMPH,Wind Direction,Wind SpeedMPH,Gust SpeedMPH,PrecipitationIn,Events,Conditions,WindDirDegrees,DateUTC
12:16 AM,71.6,69.8,94,30.13,10.0,Calm,Calm,-,N/A,,Scattered Clouds,0,2013-08-11 04:16:00
12:44 AM,71.6,69.8,94,30.14,10.0,Calm,Calm,-,N/A,,Mostly Cloudy,0,2013-08-11 04:44:00
12:54 AM,72.0,71.1,97,30.10,10.0,NE,3.5,-,N/A,,Overcast,50,2013-08-11 04:54:00
1:20 AM,73.4,71.6,94,30.13,10.0,Calm,Calm,-,N/A,,Overcast,0,2013-08-11 05:20:00
1:30 AM,73.4,71.6,94,30.13,10.0,NE,3.5,-,N/A,,Overcast,40,2013-08-11 05:30:00
1:38 AM,73.4,71.6,94,30.12,10.0,Calm,Calm,-,N/A,,Overcast,0,2013-08-11 05:38:00
1:45 AM,73.4,71.6,94,30.12,10.0,NNE,3.5,-,N/A,,Overcast,20,2013-08-11 05:45:00
1:54 AM,73.0,72.0,96,30.09,9.0,NNE,4.6,-,N/A,,Overcast,30,2013-08-11 05:54:00
2:54 AM,72.0,71.1,97,30.08,10.0,NNE,8.1,-,N/A,,Overcast,20,2013-08-11 06:54:00
3:54 AM,71.1,69.1,93,30.09,10.0,Calm,Calm,-,N/A,,Overcast,0,2013-08-11 07:54:00
4:54 AM,71.1,70.0,96,30.09,6.0,Calm,Calm,-,0.00,,Overcast,0,2013-08-11 08:54:00
5:54 AM,71.1,69.1,93,30.10,10.0,Calm,Calm,-,N/A,,Overcast,0,2013-08-11 09:54:00
6:54 AM,72.0,70.0,93,30.11,7.0,Calm,Calm,-,N/A,,Overcast,0,2013-08-11 10:54:00
7:54 AM,72.0,70.0,93,30.12,8.0,Calm,Calm,-,N/A,,Overcast,0,2013-08-11 11:54:00
8:54 AM,73.9,71.1,91,30.13,10.0,Calm,Calm,-,N/A,,Overcast,0,2013-08-11 12:54:00
9:54 AM,73.9,72.0,93,30.13,10.0,South,3.5,-,N/A,,Overcast,170,2013-08-11 13:54:00
10:54 AM,75.0,72.0,90,30.13,10.0,Calm,Calm,-,0.01,,Overcast,0,2013-08-11 14:54:00
11:54 AM,75.9,72.0,87,30.12,10.0,Calm,Calm,-,N/A,,Overcast,0,2013-08-11 15:54:00
12:54 PM,82.9,73.0,72,30.09,10.0,Calm,Calm,-,N/A,,Mostly Cloudy,0,2013-08-11 16:54:00
1:01 PM,82.4,71.6,70,30.12,10.0,NW,3.5,-,N/A,,Mostly Cloudy,310,2013-08-11 17:01:00
1:54 PM,84.0,71.1,65,30.07,10.0,NW,3.5,-,N/A,,Mostly Cloudy,320,2013-08-11 17:54:00
2:03 PM,84.2,71.6,66,30.10,10.0,Calm,Calm,-,N/A,,Mostly Cloudy,0,2013-08-11 18:03:00
2:54 PM,84.9,70.0,61,30.06,10.0,Calm,Calm,-,0.00,,Mostly Cloudy,0,2013-08-11 18:54:00
3:50 PM,87.8,71.6,58,30.07,10.0,NNW,3.5,-,N/A,,Scattered Clouds,340,2013-08-11 19:50:00
3:54 PM,86.0,71.1,61,30.04,10.0,Calm,Calm,-,N/A,,Scattered Clouds,0,2013-08-11 19:54:00
4:54 PM,81.0,73.0,77,30.05,10.0,South,9.2,-,N/A,,Overcast,170,2013-08-11 20:54:00
5:15 PM,78.8,73.4,83,30.07,1.8,South,9.2,-,0.01,Rain,Heavy Rain,190,2013-08-11 21:15:00
5:23 PM,77.0,75.2,94,30.08,6.0,SSW,3.5,-,0.20,Rain,Heavy Rain,200,2013-08-11 21:23:00
5:54 PM,78.1,75.9,93,30.03,10.0,SE,3.5,-,0.27,,Mostly Cloudy,140,2013-08-11 21:54:00
6:54 PM,79.0,75.9,90,30.04,10.0,Calm,Calm,-,0.01,Rain,Light Rain,0,2013-08-11 22:54:00
7:43 PM,77.0,75.2,94,30.08,8.0,Calm,Calm,-,0.00,,Mostly Cloudy,0,2013-08-11 23:43:00
7:54 PM,75.9,73.9,94,30.06,8.0,East,3.5,-,0.00,,Mostly Cloudy,100,2013-08-11 23:54:00
8:17 PM,73.4,71.6,94,30.09,10.0,NE,4.6,-,N/A,,Overcast,40,2013-08-12 00:17:00
8:54 PM,73.0,71.1,93,30.07,10.0,Calm,Calm,-,0.00,Rain,Light Rain,0,2013-08-12 00:54:00
9:54 PM,71.1,70.0,96,30.07,10.0,Calm,Calm,-,0.00,,Clear,0,2013-08-12 01:54:00
10:52 PM,71.6,69.8,94,30.08,10.0,Calm,Calm,-,N/A,,Scattered Clouds,0,2013-08-12 02:52:00
10:54 PM,71.1,70.0,96,30.06,10.0,SSW,3.5,-,N/A,,Scattered Clouds,210,2013-08-12 02:54:00
11:28 PM,71.6,69.8,94,30.09,10.0,Calm,Calm,-,N/A,,Mostly Cloudy,0,2013-08-12 03:28:00
11:42 PM,71.6,69.8,94,30.10,10.0,Calm,Calm,-,N/A,,Overcast,0,2013-08-12 03:42:00
11:54 PM,72.0,71.1,97,30.06,9.0,Calm,Calm,-,N/A,,Overcast,0,2013-08-12 03:54:00